This is the latest recevied weather packets stored in our database for station/object WX9WTF. If no packets are shown the sender has not sent any weather packets the latest 10 day(s).
| Time | Temp. | Humidity | Pressure | Rain* | Wind** | Luminosity | Snow |
|---|---|---|---|---|---|---|---|
| 1778068904 | 7.22° C | 90% | 1017 hPa | 0 mm | - | 27 W/m² | - |
| 1778068603 | 7.22° C | 90% | 1016.9 hPa | 0 mm | - | 24 W/m² | - |
| 1778068300 | 7.22° C | 89% | 1017.2 hPa | 0 mm | - | 17 W/m² | - |
| 1778067997 | 7.22° C | 89% | 1017.2 hPa | 0 mm | - | 13 W/m² | - |
| 1778067695 | 7.22° C | 89% | 1017.1 hPa | 0 mm | - | 10 W/m² | - |
| 1778067393 | 7.22° C | 91% | 1017 hPa | 0 mm | - | 6 W/m² | - |
| 1778067090 | 7.22° C | 91% | 1017.3 hPa | 0 mm | - | 5 W/m² | - |
| 1778066786 | 7.22° C | 91% | 1017.1 hPa | 0 mm | - | 3 W/m² | - |
| 1778066484 | 7.22° C | 90% | 1017.1 hPa | 0 mm | - | 2 W/m² | - |
| 1778066182 | 7.22° C | 90% | 1017.4 hPa | 0 mm | - | 1 W/m² | - |
| 1778065879 | 7.22° C | 90% | 1017.1 hPa | 0 mm | - | 0 W/m² | - |
| 1778065576 | 7.22° C | 91% | 1017.6 hPa | 0 mm | - | 0 W/m² | - |
| 1778065274 | 7.22° C | 92% | 1017.7 hPa | 0 mm | - | 0 W/m² | - |
| 1778064970 | 7.22° C | 92% | 1017.5 hPa | 0 mm | - | 0 W/m² | - |
| 1778064667 | 7.22° C | 93% | 1017.8 hPa | 0 mm | - | 0 W/m² | - |
| 1778064365 | 7.22° C | 94% | 1017.8 hPa | 0 mm | - | 0 W/m² | - |
| 1778064062 | 7.22° C | 95% | 1018.2 hPa | 0 mm | - | 0 W/m² | - |
| 1778063760 | 6.67° C | 95% | 1017.9 hPa | 0 mm | - | 0 W/m² | - |
| 1778063456 | 6.67° C | 95% | 1017.6 hPa | 0 mm | - | 0 W/m² | - |
| 1778063155 | 6.67° C | 96% | 1017.8 hPa | 0 mm | - | 0 W/m² | - |
| 1778062852 | 6.67° C | 96% | 1017.5 hPa | 0 mm | - | 0 W/m² | - |
| 1778062548 | 6.67° C | 96% | 1017.4 hPa | 0 mm | - | 0 W/m² | - |
| 1778062246 | 6.67° C | 97% | 1017.1 hPa | 0 mm | - | 0 W/m² | - |
| 1778061944 | 6.67° C | 97% | 1016.9 hPa | 0 mm | - | 0 W/m² | - |
| 1778061641 | 6.67° C | 97% | 1016.4 hPa | 0 mm | - | 0 W/m² | - |
* Rain latest hour (hover to see other rain measurements)
** Current wind speed in m/s (hover to see current wind gust speed)